Regional Weather Roundup
Issued by NWS

Home | Current Version | Previous Version | Text Only | Print | Product List | Glossary Off
Versions: 1 2 3 4 5 6 7 8 9 10 11 12 13 14 15 16 17 18 19 20 21 22 23 24 25 26 27 28 29 30 31 32 33 34 35 36 37 38 39 40 41 42 43 44 45 46 47 48 49 50

000
ASUS43 KMKX 251811
RWRWI

WISCONSIN REGIONAL WEATHER ROUNDUP
NATIONAL WEATHER SERVICE MILWAUKEE/SULLIVAN WI
100 PM CDT SUN JUN 25 2017

NOTE: "FAIR" INDICATES FEW OR NO CLOUDS BELOW 12,000 FEET WITH NO
SIGNIFICANT WEATHER AND/OR OBSTRUCTIONS TO VISIBILITY.

WIZ001-002-006>008-014>016-023>028-251900-
NORTHWEST WISCONSIN

CITY           SKY/WX    TMP DP  RH WIND       PRES   REMARKS
SUPERIOR ARPT  NOT AVBL
ASHLAND        HVY RAIN  55  54  96 SW7       30.03S FOG
6HR MIN TEMP:  53; 6HR MAX TEMP:  61;

HAYWARD        RAIN      52  49  89 NW10G17   30.08R FOG
6HR MIN TEMP:  52; 6HR MAX TEMP:  60; 6HR PCP:  0.39;

SIREN          CLOUDY    58  48  69 NW16      30.10S
6HR MIN TEMP:  51; 6HR MAX TEMP:  59; 6HR PCP:  0.02;

CUMBERLAND     CLOUDY    57  50  77 NW14G20   30.09S
RICE LAKE      LGT RAIN  57  52  82 NW15      30.11R
6HR MIN TEMP:  53; 6HR MAX TEMP:  60; 6HR PCP:  0.05;

CHETEK         LGT RAIN  57  54  89 NW7G18    30.09R
6HR MIN TEMP:  53; 6HR MAX TEMP:  60; 6HR PCP:  0.01;

LADYSMITH      RAIN      58  54  84 W15       30.07S
6HR MIN TEMP:  53; 6HR MAX TEMP:  61; 6HR PCP:  0.02;

EAU CLAIRE     CLOUDY    58  53  84 W16       30.09S
6HR MIN TEMP:  53; 6HR MAX TEMP:  62; 6HR PCP: TRACE;

MENOMONIE      CLOUDY    59  54  83 W12G22    30.11S HAZE
6HR MIN TEMP:  55; 6HR MAX TEMP:  61;

NEW RICHMOND   CLOUDY    60  48  64 W21       30.12F
6HR MIN TEMP:  53; 6HR MAX TEMP:  61; 6HR PCP:  0.02;

OSCEOLA        CLOUDY    60  49  67 W17G25    30.16R
6HR MIN TEMP:  54; 6HR MAX TEMP:  61;

$$

WIZ003>005-009-010-017-018-251900-
NORTH CENTRAL WISCONSIN

CITY           SKY/WX    TMP DP  RH WIND       PRES   REMARKS
MANITOWISH WTR PTSUNNY   60  49  65 SW8       30.01S
6HR MIN TEMP:  51; 6HR MAX TEMP:  62;

ARBOR VITAE    MOSUNNY   62  51  66 W8        30.00F
6HR MIN TEMP:  55; 6HR MAX TEMP:  62;

WOODRUFF       MOSUNNY   62  51  66 W8        30.00F
6HR MIN TEMP:  55; 6HR MAX TEMP:  62;

RHINELANDER    PTSUNNY   61  52  72 W10       30.02F
6HR MIN TEMP:  53; 6HR MAX TEMP:  63;

EAGLE RIVER    MOSUNNY   61  49  65 NW8       30.01S
6HR MIN TEMP:  51; 6HR MAX TEMP:  64;

LAND O LAKES   PTSUNNY   64  47  55 NE3       30.02F
6HR MIN TEMP:  51; 6HR MAX TEMP:  64;

PHILLIPS       PTSUNNY   61  52  71 W7        30.02F
6HR MIN TEMP:  48; 6HR MAX TEMP:  61;

TOMAHAWK       NOT AVBL
MEDFORD        CLOUDY    56  51  82 W9G18     30.05F
6HR MIN TEMP:  50; 6HR MAX TEMP:  57;

MERRILL        CLOUDY    60  52  76 W10       30.04F
6HR MIN TEMP:  50; 6HR MAX TEMP:  62;

$$

WIZ029-030-035-036-043>047-251900-
CENTRAL WISCONSIN

CITY           SKY/WX    TMP DP  RH WIND       PRES   REMARKS
WAUSAU         CLOUDY    58  54  86 W10       30.04S
6HR MIN TEMP:  54; 6HR MAX TEMP:  61; 6HR PCP:  0.03;

MOSINEE        CLOUDY    57  52  82 W9        30.07S
MARSHFIELD     LGT RAIN  58  52  80 NW13G22   30.06S
6HR MIN TEMP:  51; 6HR MAX TEMP:  61; 6HR PCP: TRACE;

STEVENS POINT  CLOUDY    59  48  67 W15       30.06F
6HR MIN TEMP:  51; 6HR MAX TEMP:  61;

WAUPACA        PTSUNNY   65  50  57 W9        30.06S
6HR MIN TEMP:  55; 6HR MAX TEMP:  66; 6HR PCP:  0.01;

WAUTOMA        CLOUDY    62  50  64 W15       30.08S
6HR MIN TEMP:  54; 6HR MAX TEMP:  65;

WISC RAPIDS    PTSUNNY   65  50  58 W8        30.08F
6HR MIN TEMP:  52; 6HR MAX TEMP:  65;

CAMP DOUGLAS   PTSUNNY   61  52  72 W14       30.09F
$$

WIZ011>013-019>022-031-037>040-048>050-251900-
NORTHEAST WISCONSIN

CITY           SKY/WX    TMP DP  RH WIND       PRES   REMARKS
ANTIGO         CLOUDY    58  52  80 W9        30.04S
6HR MIN TEMP:  52; 6HR MAX TEMP:  61; 6HR PCP:  0.02;

SHAWANO        PTSUNNY   69  51  51 W10G18    30.00F
6HR MIN TEMP:  56; 6HR MAX TEMP:  69;

OCONTO         CLOUDY    67  51  57 W10G17    29.99F
6HR MIN TEMP:  55; 6HR MAX TEMP:  68;

STURGEON BAY     N/A     62  53  72 W7          N/A
6HR MIN TEMP:  55; 6HR MAX TEMP:  63;

GREEN BAY      MOSUNNY   70  54  56 NW14G22   30.01S
6HR MIN TEMP:  55; 6HR MAX TEMP:  70;

MANITOWOC      CLOUDY    66  50  56 W9        30.02S
6HR MIN TEMP:  57; 6HR MAX TEMP:  68; 6HR PCP:  0.01;

APPLETON       PTSUNNY   64  48  55 W18G24    30.03R
CLINTONVILLE   PTSUNNY   66  50  55 W17       30.02S
OSHKOSH        MOSUNNY   66  51  58 W14G23    30.04S
6HR MIN TEMP:  53; 6HR MAX TEMP:  66;

$$

WIZ032>034-041-042-053>061-251900-
SOUTHWEST WISCONSIN

CITY           SKY/WX    TMP DP  RH WIND       PRES   REMARKS
LA CROSSE      PTSUNNY   70  50  49 W16       30.11F
6HR MIN TEMP:  58; 6HR MAX TEMP:  70;

SPARTA         CLOUDY    63  51  65 NW14G20   30.11F
6HR MIN TEMP:  49; 6HR MAX TEMP:  63;

VIROQUA        CLOUDY    60  51  73 W12G17    30.14S
6HR MIN TEMP:  51; 6HR MAX TEMP:  61;

BOSCOBEL       CLOUDY    63  49  60 W10G18    30.15R
6HR MIN TEMP:  54; 6HR MAX TEMP:  63;

PRAIRIE DU CHI CLOUDY    60  47  63 W10G18    30.16R
6HR MIN TEMP:  54; 6HR MAX TEMP:  61;

PLATTEVILLE    CLOUDY    61  51  70 W20       30.16R
6HR MIN TEMP:  53; 6HR MAX TEMP:  63;

$$

WIZ056-057-062-063-064-067-068-251900-
SOUTH CENTRAL WISCONSIN

CITY           SKY/WX    TMP DP  RH WIND       PRES   REMARKS
REEDSBURG      CLOUDY    59  50  72 W10G17    30.11S
6HR MIN TEMP:  53; 6HR MAX TEMP:  62;

BARABOO/DELLS  CLOUDY    59  48  66 W12       30.10F
6HR MIN TEMP:  53; 6HR MAX TEMP:  62;

LONE ROCK      CLOUDY    63  49  60 NW14      30.13R
6HR MIN TEMP:  54; 6HR MAX TEMP:  63;

MINERAL POINT  CLOUDY    63  52  67 W17       30.13S
MADISON        PTSUNNY   64  49  57 W9G21     30.10S
6HR MIN TEMP:  53; 6HR MAX TEMP:  64;

MIDDLETON      CLOUDY    65  49  57 W13G21    30.11S
6HR MIN TEMP:  53; 6HR MAX TEMP:  65;

WATERTOWN      PTSUNNY   65  52  62 W15       30.08S
6HR MIN TEMP:  54; 6HR MAX TEMP:  66;

MONROE         PTSUNNY   63  45  51 W23       30.12S
JANESVILLE     PTSUNNY   66  48  52 W17       30.10S
$$

WIZ051-052-058>065-066-070>072-251900-
SOUTHEAST WISCONSIN

CITY           SKY/WX    TMP DP  RH WIND       PRES   REMARKS
MILWAUKEE      PTSUNNY   69  47  45 W18       30.06S
6HR MIN TEMP:  57; 6HR MAX TEMP:  70;

WAUKESHA       PTSUNNY   64  48  55 W16G23    30.08S
MILWAUKEE/TIMM PTSUNNY   68  45  42 W14G23    30.06F
RACINE         MOSUNNY   71  48  43 W14G23    30.08S
6HR MIN TEMP:  55; 6HR MAX TEMP:  71;

KENOSHA        MOSUNNY   67  49  52 W22       30.08S
6HR MIN TEMP:  55; 6HR MAX TEMP:  69;

FOND DU LAC    PTSUNNY   66  50  56 W14G22    30.06R
6HR MIN TEMP:  56; 6HR MAX TEMP:  67;

SHEBOYGAN      PTSUNNY   68  53  58 W13G23    30.03R
6HR MIN TEMP:  55; 6HR MAX TEMP:  68;

WEST BEND      PTSUNNY   63  46  55 W15       30.06R
JUNEAU         PTSUNNY   63  50  62 W14       30.09S
6HR MIN TEMP:  52; 6HR MAX TEMP:  63;

$$

LSZ147-162-251900-
LAKE SUPERIOR

STATION/POSITION TIME  TEMP    WIND        PRES    WAVE
                       AIR SEA DIR/SP/G            HT/PER
                 (UTC) (F)     (DEG/KT/KT) (MB)    (FT/S)
W MID LAKE BUOY  1750   42 39   40/  8/  8 1017.1F   0
DEVILS ISLAND    1800   54     260/  7/  9 1017.0R
PORT WING        1658   57     280/ 18/ 25 1016.9
SAXON HARBOR     1740   60      30/  3/  3 1016.3F
$$

LMZ867-665-643>646-251900-
LAKE MICHIGAN

STATION/POSITION TIME  TEMP    WIND        PRES    WAVE
                       AIR SEA DIR/SP/G            HT/PER
                 (UTC) (F)     (DEG/KT/KT) (MB)    (FT/S)
CHAMBERS ISLAND  1740   64     340/  2/  4 1015.2S
S GREEN BAY BUOY 1800   64     300/  8/ 10 1015.4
N MID LAKE BUOY  1750   57 57  290/  2/  2 1016.2S   1/ 3
NORTHPORT PIER   1740   62     310/  7/ 10


USA.gov is the U.S. government's official web portal to all federal, state and local government web resources and services.